MOLNIYA 3-50

Last updated on Jan. 24, 2021, 6:18 a.m. UTC

1 25847U 99036A   21023.13158482 -.00000100  00000-0 -25186-3 0  9991
2 25847  62.5454  56.7955 7422178 277.9888  11.3752  2.00592644157870
UTC
Height (km)
Latitude
Longitude
Inclination
Orbital Period
UTC large
Height (km)
Speed (km/s)
/
Latitude / Longitude
Inclination (degrees)
Orbital Period (minutes)
Azimuth
Elevation
Range (km)
Doppler Factor
iOS Compass Heading
iOS Angle

Next 30 passes for location: Hong Kong

Rise time Rise Azimuth (degrees) Set time Set Azimuth (degrees) Duration Max altitude (degrees)

No matching passes for this satellites